{"data":{"norad_id":65866,"intl_designator":"2025-223N","name":"STARLINK-35312","alt_names":[],"object_type":"PAYLOAD","status":"ACTIVE","operator":null,"country":"US","launch_date":"2025-10-03","launch_site_code":"AFWTR","launch_vehicle":null,"mission":null,"orbit_class":"UNKNOWN","rcs_meters":null,"size_class":null,"mass_kg":null,"dimensions":null,"purposes":["comms"],"wikipedia_slug":null,"has_3d_model":false,"image_url":null,"decayed_at":null,"tle_current":{"epoch":"2026-09-20T22:53:38.666400Z","epoch_age_seconds":66961,"freshness":"FRESH","line1":"1 65866U 25223N   26263.95391975  .00019793  00000+0  59538-3 0  9993","line2":"2 65866  53.1588 103.4916 0001007  89.8241 270.2877 15.34401198 54151","mean_motion":15.34401198,"eccentricity":0.0001007,"inclination_deg":53.1588,"raan_deg":103.4916,"arg_perigee_deg":89.8241,"mean_anomaly_deg":270.2877,"bstar":0.00059538,"rev_number":5415,"period_min":93.847684808703,"perigee_km":462.01080724733,"apogee_km":463.38855175458,"semimajor_km":6840.836679501,"source":"CELESTRAK","updated_at":"2026-09-21T09:00:35.727747Z"}}}